Home   Weather   Quincy   Past weeks
Flag for USA

Past Weather in Quincy, Illinois, USA — Yesterday and Last 2 Weeks

Now
40 °F

Clear.


Feels Like: 36 °F
Forecast: 64 / 35 °F
Wind: 6 mph from Southeast

Location: Quincy Municipal / Baldwin

Current Time: Mar 26, 2019 at 10:34:29 pm

Latest Report: Mar 26, 2019 at 9:54 pm


Visibility: 10 mi

Pressure: 30.35 "Hg

Humidity: 60%

Dew Point: 27 °F

Location of QuincyLocation

Past Weather in Quincy — Graph

°F

Quincy Temperature Yesterday

Maximum temperature yesterday: 51 °F (at 4:54 pm)
Minimum temperature yesterday: 38 °F (at 7:54 am)
Average temperature yesterday: 44 °F

High & Low Weather Summary for the Past Weeks

 TemperatureHumidityPressure
High60 °F (Mar 13, 3:54 pm)97% (Mar 13, 2:26 am)30.47 "Hg (Mar 13, 2:26 am)
Low25 °F (Mar 16, 6:54 am)25% (Mar 26, 4:54 pm)29.30 "Hg (Mar 14, 8:54 am)
Average44 °F68%30.12 "Hg
* Reported Mar 11 8:54 pm — Mar 26 8:54 pm, Quincy. Weather by CustomWeather, © 2019

Note: Actual official high and low records may vary slightly from our data, if they occured in-between our weather recording intervals... More about our weather records

Advertising

Quincy Weather History for the Previous 24 Hours

Scroll right to see more
 ConditionsComfort  
Time TempWeatherWind HumidityBarometerVisibility
8:54 pm
Tue, Mar 26
45 °FClear.7 mph44%30.35 "Hg10 mi
7:54 pm46 °FClear.5 mph48%30.35 "Hg10 mi
6:54 pm50 °FSunny.6 mph32%30.35 "Hg10 mi
5:54 pm52 °FSunny.5 mph27%30.36 "Hg10 mi
4:54 pm52 °FSunny.5 mph25%30.37 "Hg10 mi
3:54 pm51 °FSunny.3 mph28%30.38 "Hg10 mi
2:54 pm50 °FSunny.5 mph29%30.39 "Hg10 mi
1:54 pm49 °FSunny.N/A27%30.42 "Hg10 mi
12:54 pm47 °FSunny.6 mph33%30.43 "Hg10 mi
11:54 am45 °FSunny.5 mph35%30.46 "Hg10 mi
10:54 am43 °FSunny.7 mph34%30.47 "Hg10 mi
9:54 am38 °FSunny.6 mph34%30.46 "Hg10 mi
8:54 am35 °FSunny.7 mph35%30.44 "Hg10 mi
7:54 am31 °FSunny.7 mph41%30.42 "Hg10 mi
6:54 am30 °FClear.7 mph49%30.42 "Hg10 mi
5:54 am31 °FClear.7 mph52%30.41 "Hg10 mi
4:54 am31 °FClear.No wind59%30.39 "Hg10 mi
3:54 am34 °FClear.7 mph54%30.37 "Hg10 mi
2:54 am36 °FClear.8 mph54%30.37 "Hg10 mi
1:54 am38 °FClear.14 mph48%30.35 "Hg10 mi
12:54 am39 °FClear.12 mph60%30.36 "Hg10 mi
11:54 pm
Mon, Mar 25
39 °FPassing clouds.10 mph73%30.35 "Hg10 mi
10:54 pm39 °FOvercast.6 mph79%30.36 "Hg10 mi
Weather by CustomWeather, © 2019

See weather overview